Starlink 4351

operational
NORAD ID: 53193 Int'l Des: 2022-084 Owner: SPXS Country: US Constellation: starlink
LEOCIRCULARRETROGRADESSO

Starlink 4351について

説明を読み込み中...

リアルタイム位置

3D地球を読み込み中...

次回通過

高度履歴

Altitude vs Time

uPlot chart will show altitude changes over time

軌道要素

1 53193U 22084E 25299.40802015 -.00001728 00000-0 -13006-3 0 9997
2 53193 97.6024 358.7360 0003094 192.4521 167.6628 15.01257080180186
Epoch: Oct 26, 2025 • Age: 8 hours

現在のステータス

高度 585.5 km
速度 7.57 km/s
衛星直下点 -55.67°S, 71.81°E
打ち上げ日 Jul 22, 2022
運用期間 3.2 years
タイプ internet

技術仕様

分類 Payload
質量 297.00 kg
乾燥質量 275.00 kg
総質量 297.00 kg
長さ 0.20 m
直径 2.80 m
スパン 9.00 m
形状 Box + pan
製造者 SPXS
バスタイプ Starlink
フェーズステータス In Orbit
所有者/国 SPXS/US

大規模コンステレーション

Loading constellations...